Location: Jaworzyna Śląska
(50.9128°N, 16.4318°E)
Time: 03:09:46
(UTC+02:00)

ISS - Visible Passes

Search period start: 17 October 2019 00:00
Search period end: 27 October 2019 00:00
Orbit: 411 x 421 km, 51.6° (Epoch: 16 October)

Date Brightness Start Highest point End Pass type
(mag) Time Alt. Az. Time Alt. Az. Time Alt. Az.
24 Oct -0.9 06:50:45 10° S 06:53:04 17° SE 06:55:23 10° E visible
25 Oct -0.7 06:03:28 10° SSE 06:04:43 12° SE 06:05:58 10° ESE visible
26 Oct -2.1 06:49:16 10° SW 06:52:21 33° SSE 06:55:25 10° E visible
